Weather History for KIKW - May, 2013

Change the Weather History Date:

Wednesday, May 1, 2013

  Actual Average (KMBS) Record (KMBS)
Temperature  
Mean Temperature 72 °F 52 °F  
Max Temperature 84 °F 63 °F 84 °F (2013)
Min Temperature 59 °F 41 °F 34 °F (2005)
Degree Days  
Heating Degree Days 0    
Month to date heating degree days  
Since 1 July heating degree days  
Cooling Degree Days 6    
Month to date cooling degree days  
Year to date cooling degree days  
Growing Degree Days 22 (Base 50)    
Moisture  
Dew Point 55 °F    
Average Humidity 56    
Maximum Humidity 80    
Minimum Humidity 33    
Precipitation  
Precipitation 0.00 in 0.10 in 0.79 in (2003)
Month to date precipitation 0.10  
Year to date precipitation 8.37  
Snow  
Snow 0.00 in - - ()
Month to date snowfall  
Since 1 July snowfall  
Snow Depth -    
Sea Level Pressure  
Sea Level Pressure 30.12 in    
Wind  
Wind Speed 7 mph (SSE)    
Max Wind Speed 16 mph    
Max Gust Speed 23 mph    
Visibility 10 miles    
Events      
T = Trace of Precipitation, MM = Missing Value Source: NWS Daily Summary

Daily Weather History Graph

Daily Weather History Graph

Search for Another Location

Airport or City:

Trip Planner

Search our weather history database for the weather conditions in past years. The results will help you decide how hot, cold, wet, or windy it might be!

Date:

Astronomy

May. 01, 2013 Rise Set
Actual Time 6:29 AM EDT 8:39 PM EDT
Civil Twilight 5:57 AM EDT 9:11 PM EDT
Nautical Twilight 5:18 AM EDT 9:50 PM EDT
Astronomical Twilight 4:36 AM EDT 10:33 PM EDT
Moon 1:49 AM EDT (5/1) 12:06 PM EDT (5/1)
Length of Visible Light 15h 13m
Length of Day
14h 10m
Waning Gibbous, 59% of the Moon is Illuminated
May 1
Waning Gibbous
May 2
Last Quarter
May 9
New
May 18
First Quarter
May 25
Full

Hourly Weather History & Observations

Time (EDT) Temp. Heat Index Dew Point Humidity Pressure Visibility Wind Dir Wind Speed Gust Speed Precip Events Conditions
12:14 AM 65.5 °F - 55.2 °F 69% 30.01 in 10.0 mi South 6.9 mph - N/A   Clear
12:34 AM 65.3 °F - 55.0 °F 69% 30.01 in 10.0 mi South 5.8 mph - N/A   Clear
12:53 AM 65.3 °F - 54.9 °F 69% 30.02 in 10.0 mi South 8.1 mph - N/A   Clear
1:13 AM 64.8 °F - 55.0 °F 71% 30.02 in 10.0 mi SSE 8.1 mph - N/A   Clear
1:33 AM 64.6 °F - 55.0 °F 71% 30.02 in 10.0 mi SSE 6.9 mph - N/A   Clear
1:53 AM 64.0 °F - 54.9 °F 72% 30.03 in 10.0 mi South 5.8 mph - N/A   Clear
2:13 AM 63.3 °F - 54.7 °F 73% 30.03 in 10.0 mi South 5.8 mph - N/A   Clear
2:33 AM 63.3 °F - 54.7 °F 73% 30.03 in 10.0 mi South 4.6 mph - N/A   Clear
2:53 AM 63.3 °F - 54.7 °F 73% 30.04 in 10.0 mi South 4.6 mph - N/A   Clear
3:13 AM 63.1 °F - 54.7 °F 74% 30.04 in 10.0 mi South 4.6 mph - N/A   Clear
3:34 AM 61.7 °F - 54.1 °F 76% 30.05 in 10.0 mi Calm Calm - N/A   Clear
3:53 AM 61.3 °F - 54.5 °F 78% 30.06 in 10.0 mi SSE 3.5 mph - N/A   Clear
4:14 AM 61.3 °F - 54.5 °F 78% 30.06 in 10.0 mi South 4.6 mph - N/A   Clear
4:33 AM 61.3 °F - 54.1 °F 77% 30.06 in 10.0 mi South 4.6 mph - N/A   Clear
4:53 AM 61.3 °F - 54.0 °F 77% 30.07 in 10.0 mi South 3.5 mph - N/A   Clear
5:14 AM 60.6 °F - 53.6 °F 78% 30.07 in 10.0 mi South 3.5 mph - N/A   Clear
5:33 AM 60.3 °F - 53.6 °F 79% 30.07 in 10.0 mi South 3.5 mph - N/A   Clear
5:53 AM 59.9 °F - 53.4 °F 79% 30.08 in 10.0 mi South 4.6 mph - N/A   Clear
6:13 AM 59.7 °F - 53.4 °F 80% 30.08 in 10.0 mi South 3.5 mph - N/A   Clear
6:33 AM 59.7 °F - 53.4 °F 80% 30.09 in 10.0 mi South 5.8 mph - N/A   Clear
6:54 AM 59.9 °F - 53.6 °F 80% 30.10 in 10.0 mi Calm Calm - N/A   Clear
7:13 AM 60.1 °F - 53.8 °F 80% 30.11 in 10.0 mi South 4.6 mph - N/A   Clear
7:33 AM 61.3 °F - 54.5 °F 78% 30.12 in 10.0 mi South 3.5 mph - N/A   Clear
7:54 AM 62.2 °F - 54.3 °F 75% 30.13 in 10.0 mi South 4.6 mph - N/A   Clear
8:13 AM 63.1 °F - 54.3 °F 73% 30.13 in 10.0 mi South 6.9 mph - N/A   Clear
8:33 AM 64.6 °F - 54.7 °F 70% 30.14 in 10.0 mi South 6.9 mph - N/A   Clear
8:53 AM 66.4 °F - 54.7 °F 66% 30.14 in 10.0 mi South 8.1 mph - N/A   Clear
9:14 AM 68.4 °F - 54.7 °F 62% 30.14 in 10.0 mi SSW 9.2 mph - N/A   Clear
9:33 AM 70.2 °F - 55.4 °F 59% 30.14 in 10.0 mi SSW 9.2 mph - N/A   Clear
9:54 AM 71.8 °F - 55.8 °F 57% 30.14 in 10.0 mi South 8.1 mph - N/A   Clear
10:13 AM 73.4 °F - 56.5 °F 55% 30.14 in 10.0 mi SSW 8.1 mph - N/A   Clear
10:33 AM 74.3 °F - 56.7 °F 54% 30.15 in 7.0 mi South 4.6 mph - N/A   Clear
10:54 AM 76.1 °F - 57.2 °F 52% 30.15 in 10.0 mi South 5.8 mph - N/A   Clear
11:13 AM 77.2 °F - 57.4 °F 50% 30.15 in 10.0 mi South 6.9 mph - N/A   Clear
11:33 AM 78.8 °F - 58.3 °F 49% 30.15 in 7.0 mi South 9.2 mph - N/A   Clear
11:54 AM 79.3 °F - 57.6 °F 47% 30.15 in 10.0 mi SSE 6.9 mph - N/A   Clear
12:13 PM 80.2 °F 80.6 °F 57.9 °F 46% 30.15 in 10.0 mi South 8.1 mph - N/A   Clear
12:34 PM 80.8 °F 80.9 °F 57.2 °F 44% 30.15 in 10.0 mi SSE 4.6 mph - N/A   Clear
12:54 PM 81.3 °F 81.3 °F 57.4 °F 44% 30.15 in 10.0 mi SSE 11.5 mph - N/A   Clear
1:13 PM 81.5 °F 81.4 °F 56.8 °F 43% 30.15 in 10.0 mi SW 6.9 mph - N/A   Clear
1:34 PM 82.4 °F 82.0 °F 57.0 °F 42% 30.15 in 10.0 mi SE 6.9 mph - N/A   Scattered Clouds
1:54 PM 82.4 °F 82.0 °F 57.4 °F 42% 30.15 in 10.0 mi South 11.5 mph - N/A   Scattered Clouds
2:13 PM 83.7 °F 83.1 °F 57.4 °F 41% 30.15 in 10.0 mi SSE 12.7 mph 18.4 mph N/A   Scattered Clouds
2:34 PM 84.0 °F 83.2 °F 56.8 °F 39% 30.15 in 10.0 mi South 10.4 mph 19.6 mph N/A   Scattered Clouds
2:53 PM 84.2 °F 83.3 °F 56.8 °F 39% 30.15 in 10.0 mi SSW 8.1 mph 16.1 mph N/A   Clear
3:13 PM 84.2 °F 83.3 °F 56.8 °F 39% 30.15 in 10.0 mi SSE 8.1 mph 17.3 mph N/A   Scattered Clouds
3:34 PM 83.8 °F 83.3 °F 57.6 °F 41% 30.15 in 10.0 mi SE 12.7 mph 18.4 mph N/A   Scattered Clouds
3:53 PM 84.2 °F 83.7 °F 57.9 °F 41% 30.14 in 10.0 mi SE 16.1 mph 23.0 mph N/A   Scattered Clouds
4:14 PM 84.2 °F 83.3 °F 56.7 °F 39% 30.14 in 10.0 mi South 8.1 mph 18.4 mph N/A   Scattered Clouds
4:34 PM 84.0 °F 82.7 °F 54.7 °F 36% 30.14 in 10.0 mi SE 16.1 mph 20.7 mph N/A   Clear
4:53 PM 83.5 °F 82.4 °F 54.7 °F 37% 30.14 in 10.0 mi SE 11.5 mph 18.4 mph N/A   Clear
5:14 PM 84.2 °F 82.8 °F 54.0 °F 35% 30.15 in 10.0 mi SSE 11.5 mph 16.1 mph N/A   Clear
5:34 PM 84.2 °F - 52.7 °F 34% 30.15 in 10.0 mi SSE 5.8 mph - N/A   Clear
5:54 PM 83.5 °F - 51.6 °F 33% 30.15 in 10.0 mi South 13.8 mph 21.9 mph N/A   Clear
6:13 PM 83.3 °F - 52.0 °F 34% 30.15 in 10.0 mi SE 12.7 mph 16.1 mph N/A   Clear
6:33 PM 83.3 °F - 52.2 °F 34% 30.15 in 10.0 mi SSE 11.5 mph 16.1 mph N/A   Clear
6:54 PM 82.4 °F - 52.7 °F 36% 30.15 in 10.0 mi SSE 9.2 mph 18.4 mph N/A   Clear
7:13 PM 82.4 °F 81.4 °F 53.6 °F 37% 30.16 in 10.0 mi SE 12.7 mph 17.3 mph N/A   Clear
7:33 PM 81.5 °F 80.9 °F 54.0 °F 39% 30.16 in 10.0 mi SSE 9.2 mph - N/A   Clear
7:54 PM 80.6 °F 80.5 °F 55.2 °F 42% 30.16 in 10.0 mi SSE 9.2 mph - N/A   Clear
8:13 PM 79.3 °F - 54.9 °F 43% 30.17 in 10.0 mi SSE 9.2 mph - N/A   Clear
8:34 PM 78.1 °F - 54.7 °F 44% 30.17 in 10.0 mi SSE 6.9 mph - N/A   Clear
8:54 PM 77.2 °F - 54.7 °F 46% 30.18 in 10.0 mi SSE 9.2 mph - N/A   Clear
9:34 PM 75.7 °F - 54.5 °F 48% 30.19 in 10.0 mi SSE 6.9 mph - N/A   Clear
9:54 PM 75.4 °F - 54.0 °F 47% 30.20 in 10.0 mi SSE 8.1 mph - N/A   Clear
10:34 PM 73.8 °F - 53.6 °F 49% 30.20 in 10.0 mi SSE 6.9 mph - N/A   Clear
10:54 PM 73.4 °F - 54.0 °F 50% 30.20 in 10.0 mi SSE 5.8 mph - N/A   Clear
11:13 PM 72.5 °F - 53.6 °F 51% 30.20 in 10.0 mi SSE 5.8 mph - N/A   Clear
11:34 PM 71.8 °F - 53.4 °F 52% 30.20 in 10.0 mi SSE 4.6 mph - N/A   Clear
11:54 PM 70.9 °F - 53.6 °F 54% 30.21 in 10.0 mi SSE 4.6 mph - N/A   Clear